TimeEST,TemperatureF,Dew PointF,Humidity,Sea Level PressureIn,VisibilityMPH,Wind Direction,Wind SpeedMPH,Gust SpeedMPH,PrecipitationIn,Events,Conditions,WindDirDegrees,DateUTC
12:57 AM,27.0,19.9,75,30.08,10.0,Calm,Calm,-,N/A,,Clear,0,2014-01-19 05:57:00
1:57 AM,28.0,21.0,75,30.10,10.0,Calm,Calm,-,N/A,,Clear,0,2014-01-19 06:57:00
2:57 AM,33.1,23.0,66,30.08,10.0,WSW,3.5,-,N/A,,Clear,250,2014-01-19 07:57:00
3:57 AM,35.1,21.0,57,30.08,10.0,WSW,5.8,-,N/A,,Clear,240,2014-01-19 08:57:00
4:57 AM,37.0,21.0,52,30.06,10.0,WSW,5.8,-,N/A,,Clear,250,2014-01-19 09:57:00
5:57 AM,39.0,24.1,55,30.06,10.0,WSW,5.8,-,N/A,,Clear,250,2014-01-19 10:57:00
6:57 AM,41.0,26.1,55,30.05,10.0,WSW,5.8,-,N/A,,Clear,240,2014-01-19 11:57:00
7:57 AM,46.9,26.1,44,30.04,10.0,SW,10.4,19.6,N/A,,Clear,230,2014-01-19 12:57:00
8:57 AM,48.9,27.0,43,30.04,10.0,SW,11.5,-,N/A,,Overcast,230,2014-01-19 13:57:00
9:57 AM,51.1,28.9,43,30.06,10.0,WSW,9.2,24.2,N/A,,Scattered Clouds,240,2014-01-19 14:57:00
10:57 AM,50.0,30.0,46,30.03,10.0,SW,13.8,-,N/A,,Clear,230,2014-01-19 15:57:00
11:57 AM,53.1,30.0,41,30.00,10.0,SW,10.4,-,N/A,,Partly Cloudy,230,2014-01-19 16:57:00
12:57 PM,52.0,28.0,40,29.97,10.0,SW,10.4,-,N/A,,Scattered Clouds,230,2014-01-19 17:57:00
1:57 PM,53.1,33.1,47,29.95,10.0,SW,9.2,-,N/A,,Clear,230,2014-01-19 18:57:00
2:57 PM,52.0,33.1,49,29.95,10.0,WSW,11.5,-,N/A,,Clear,240,2014-01-19 19:57:00
3:57 PM,52.0,36.0,54,29.95,10.0,SW,10.4,-,N/A,,Clear,230,2014-01-19 20:57:00
4:57 PM,51.1,35.1,54,29.96,10.0,SW,4.6,-,N/A,,Clear,230,2014-01-19 21:57:00
5:57 PM,44.1,32.0,63,29.98,10.0,Calm,Calm,-,N/A,,Clear,0,2014-01-19 22:57:00
6:57 PM,41.0,30.9,67,29.99,10.0,Calm,Calm,-,N/A,,Clear,0,2014-01-19 23:57:00
7:57 PM,37.9,30.9,76,30.00,10.0,West,3.5,-,N/A,,Clear,270,2014-01-20 00:57:00
8:57 PM,39.0,30.9,73,30.00,10.0,West,3.5,-,N/A,,Clear,270,2014-01-20 01:57:00
9:57 PM,44.1,33.1,65,30.00,10.0,WSW,4.6,-,N/A,,Clear,240,2014-01-20 02:57:00
10:57 PM,45.0,33.1,63,30.01,10.0,WSW,4.6,-,N/A,,Clear,240,2014-01-20 03:57:00
11:57 PM,44.1,33.1,65,30.00,10.0,Calm,Calm,-,N/A,,Clear,0,2014-01-20 04:57:00